| time (UTC) | temp C | wind direction | speed KPH | gust KPH | rain 1hr cm | rain 24hr cm | rain mn cm | humidity % | barometer mb |
| 20260504185555 | 18 | 261 | 1.6 | 6.4 | 0.00 | 0.00 | 0.00 | 31 | 1011.2 |
| 20260504185054 | 18 | 25 | 1.6 | 8.0 | 0.00 | 0.00 | 0.00 | 32 | 1011.2 |
| 20260504184606 | 17 | 246 | 1.6 | 8.0 | 0.00 | 0.00 | 0.00 | 33 | 1011.4 |
| 20260504184054 | 16 | 359 | 1.6 | 16.1 | 0.00 | 0.00 | 0.00 | 33 | 1011.4 |
| 20260504183552 | 17 | 277 | 3.2 | 16.1 | 0.00 | 0.00 | 0.00 | 30 | 1011.5 |
| 20260504183054 | 18 | 63 | 3.2 | 14.5 | 0.00 | 0.00 | 0.00 | 30 | 1011.6 |
| 20260504182557 | 18 | 0 | 4.8 | 14.5 | 0.00 | 0.00 | 0.00 | 29 | 1011.5 |
| 20260504182054 | 18 | 228 | 4.8 | 12.9 | 0.00 | 0.00 | 0.00 | 30 | 1011.5 |
| 20260504181604 | 18 | 186 | 3.2 | 9.7 | 0.00 | 0.00 | 0.00 | 29 | 1011.6 |
| 20260504181051 | 17 | 292 | 1.6 | 9.7 | 0.00 | 0.00 | 0.00 | 33 | 1011.8 |
| 20260504180554 | 16 | 155 | 1.6 | 4.8 | 0.00 | 0.00 | 0.00 | 34 | 1011.7 |
| 20260504180100 | 15 | 0 | 0.0 | 4.8 | 0.00 | 0.00 | 0.00 | 36 | 1011.7 |
| 20260504175554 | 15 | 0 | 0.0 | 8.0 | 0.00 | 0.00 | 0.00 | 34 | 1011.9 |
| 20260504175054 | 16 | 0 | 1.6 | 8.0 | 0.00 | 0.00 | 0.00 | 34 | 1011.8 |
| 20260504174556 | 16 | 248 | 1.6 | 8.0 | 0.00 | 0.00 | 0.00 | 34 | 1011.9 |
| 20260504174055 | 16 | 0 | 1.6 | 11.3 | 0.00 | 0.00 | 0.00 | 32 | 1011.9 |
| 20260504173556 | 16 | 143 | 4.8 | 11.3 | 0.00 | 0.00 | 0.00 | 33 | 1012.0 |
| 20260504173104 | 15 | 100 | 1.6 | 4.8 | 0.00 | 0.00 | 0.00 | 38 | 1012.0 |
| 20260504172551 | 15 | 293 | 1.6 | 4.8 | 0.00 | 0.00 | 0.00 | 35 | 1012.1 |
| 20260504172059 | 14 | 332 | 1.6 | 4.8 | 0.00 | 0.00 | 0.00 | 39 | 1012.1 |
| 20260504171604 | 14 | 278 | 0.0 | 6.4 | 0.00 | 0.00 | 0.00 | 38 | 1012.1 |
| 20260504171052 | 14 | 0 | 1.6 | 9.7 | 0.00 | 0.00 | 0.00 | 36 | 1012.1 |
| 20260504170554 | 14 | 130 | 0.0 | 11.3 | 0.00 | 0.00 | 0.00 | 40 | 1012.2 |
| 20260504151050 | 9 | 141 | 1.6 | 8.0 | 0.00 | 0.00 | 0.00 | 55 | 1013.0 |
| 20260504150553 | 10 | 106 | 3.2 | 8.0 | 0.00 | 0.00 | 0.00 | 57 | 1013.2 |
| 20260504141056 | 5 | 135 | 1.6 | 6.4 | 0.00 | 0.00 | 0.00 | 71 | 1013.5 |
| 20260504140552 | 3 | 118 | 1.6 | 6.4 | 0.00 | 0.00 | 0.00 | 76 | 1013.5 |
| 20260504140106 | 3 | 0 | 0.0 | 1.6 | 0.00 | 0.00 | 0.00 | 77 | 1013.6 |
| 20260504130553 | -1 | 0 | 0.0 | 0.0 | 0.00 | 0.00 | 0.00 | 85 | 1013.5 |
| 20260504110551 | 0 | 0 | 0.0 | 1.6 | 0.00 | 0.00 | 0.00 | 82 | 1013.6 |
| 20260504100551 | 0 | 0 | 0.0 | 0.0 | 0.00 | 0.00 | 0.00 | 79 | 1013.4 |
| 20260504081556 | 1 | 0 | 0.0 | 0.0 | 0.00 | 0.00 | 0.00 | 75 | 1013.7 |
| 20260504081053 | 1 | 0 | 0.0 | 1.6 | 0.00 | 0.00 | 0.00 | 77 | 1013.8 |
| 20260504080552 | 1 | 0 | 0.0 | 1.6 | 0.00 | 0.00 | 0.00 | 78 | 1013.9 |
| 20260504060105 | 3 | 0 | 0.0 | 0.0 | 0.00 | 0.00 | 0.00 | 72 | 1014.0 |
| 20260504050550 | 5 | 0 | 0.0 | 0.0 | 0.00 | 0.00 | 0.00 | 66 | 1014.3 |
| 20260504045552 | 5 | 0 | 0.0 | 1.6 | 0.00 | 0.00 | 0.00 | 65 | 1014.3 |
| 20260504045052 | 5 | 0 | 0.0 | 1.6 | 0.00 | 0.00 | 0.00 | 66 | 1014.3 |
| 20260504044555 | 4 | 0 | 0.0 | 1.6 | 0.00 | 0.00 | 0.00 | 66 | 1014.4 |
| 20260504044053 | 4 | 0 | 0.0 | 0.0 | 0.00 | 0.00 | 0.00 | 67 | 1014.3 |
| 20260504043555 | 5 | 0 | 0.0 | 0.0 | 0.00 | 0.00 | 0.00 | 66 | 1014.4 |
| 20260504043058 | 5 | 0 | 0.0 | 0.0 | 0.00 | 0.00 | 0.00 | 66 | 1014.3 |
| 20260504042554 | 5 | 0 | 0.0 | 0.0 | 0.00 | 0.00 | 0.00 | 65 | 1014.3 |
| 20260504042056 | 5 | 0 | 0.0 | 0.0 | 0.00 | 0.00 | 0.00 | 65 | 1014.4 |
| 20260504041559 | 5 | 0 | 0.0 | 0.0 | 0.00 | 0.00 | 0.00 | 65 | 1014.5 |
| 20260504041053 | 5 | 0 | 0.0 | 0.0 | 0.00 | 0.00 | 0.00 | 64 | 1014.4 |
| 20260504040553 | 5 | 0 | 0.0 | 1.6 | 0.00 | 0.00 | 0.00 | 65 | 1014.4 |
| 20260504040105 | 6 | 0 | 0.0 | 1.6 | 0.00 | 0.00 | 0.00 | 62 | 1014.4 |
| 20260504035553 | 6 | 0 | 0.0 | 1.6 | 0.00 | 0.00 | 0.00 | 64 | 1014.4 |
| 20260504035053 | 5 | 28 | 0.0 | 3.2 | 0.00 | 0.00 | 0.00 | 65 | 1014.5 |
| 20260504034606 | 5 | 28 | 0.0 | 3.2 | 0.00 | 0.00 | 0.00 | 62 | 1014.4 |
| 20260504034052 | 6 | 20 | 0.0 | 1.6 | 0.00 | 0.00 | 0.00 | 62 | 1014.3 |
| 20260504033553 | 6 | 0 | 0.0 | 1.6 | 0.00 | 0.00 | 0.00 | 61 | 1014.3 |
| 20260504033102 | 6 | 0 | 0.0 | 1.6 | 0.00 | 0.00 | 0.00 | 61 | 1014.2 |
| 20260504032553 | 7 | 0 | 0.0 | 0.0 | 0.00 | 0.00 | 0.00 | 60 | 1014.1 |
| 20260504032053 | 7 | 0 | 0.0 | 0.0 | 0.00 | 0.00 | 0.00 | 59 | 1014.2 |
| 20260504031605 | 6 | 0 | 0.0 | 0.0 | 0.00 | 0.00 | 0.00 | 59 | 1014.1 |
| 20260504031052 | 7 | 0 | 0.0 | 0.0 | 0.00 | 0.00 | 0.00 | 57 | 1014.1 |
| 20260504030553 | 7 | 0 | 0.0 | 3.2 | 0.00 | 0.00 | 0.00 | 57 | 1014.1 |
| 20260504030114 | 8 | 0 | 0.0 | 3.2 | 0.00 | 0.00 | 0.00 | 56 | 1014.1 |
| 20260504025553 | 8 | 0 | 0.0 | 3.2 | 0.00 | 0.00 | 0.00 | 54 | 1014.0 |
| 20260504025055 | 8 | 0 | 0.0 | 1.6 | 0.00 | 0.00 | 0.00 | 52 | 1014.0 |
| 20260504024556 | 8 | 0 | 0.0 | 0.0 | 0.00 | 0.00 | 0.00 | 51 | 1013.9 |
| 20260504024055 | 8 | 0 | 0.0 | 0.0 | 0.00 | 0.00 | 0.00 | 49 | 1013.9 |
| 20260504023553 | 9 | 0 | 0.0 | 0.0 | 0.00 | 0.00 | 0.00 | 48 | 1013.9 |
| 20260504023054 | 10 | 0 | 0.0 | 1.6 | 0.00 | 0.00 | 0.00 | 47 | 1013.9 |
| 20260504022552 | 10 | 0 | 0.0 | 1.6 | 0.00 | 0.00 | 0.00 | 44 | 1013.8 |
| 20260504022054 | 10 | 0 | 0.0 | 1.6 | 0.00 | 0.00 | 0.00 | 47 | 1013.7 |
| 20260504021603 | 11 | 0 | 0.0 | 1.6 | 0.00 | 0.00 | 0.00 | 45 | 1013.7 |
| 20260504021054 | 11 | 0 | 0.0 | 1.6 | 0.00 | 0.00 | 0.00 | 44 | 1013.7 |
| 20260504020552 | 11 | 0 | 0.0 | 1.6 | 0.00 | 0.00 | 0.00 | 43 | 1013.8 |
| 20260504020053 | 12 | 0 | 0.0 | 1.6 | 0.00 | 0.00 | 0.00 | 41 | 1013.8 |
| 20260504015554 | 12 | 0 | 0.0 | 1.6 | 0.00 | 0.00 | 0.00 | 40 | 1013.7 |
| 20260504015054 | 12 | 0 | 0.0 | 1.6 | 0.00 | 0.00 | 0.00 | 39 | 1013.7 |
| 20260504014554 | 12 | 0 | 0.0 | 1.6 | 0.00 | 0.00 | 0.00 | 40 | 1013.8 |
| 20260504014053 | 12 | 0 | 0.0 | 1.6 | 0.00 | 0.00 | 0.00 | 36 | 1013.8 |
| 20260504013553 | 13 | 0 | 0.0 | 3.2 | 0.00 | 0.00 | 0.00 | 38 | 1013.9 |
| 20260504013050 | 13 | 0 | 0.0 | 3.2 | 0.00 | 0.00 | 0.00 | 37 | 1013.9 |
| 20260504012555 | 13 | 357 | 0.0 | 3.2 | 0.00 | 0.00 | 0.00 | 36 | 1013.9 |
| 20260504012053 | 13 | 0 | 0.0 | 1.6 | 0.00 | 0.00 | 0.00 | 37 | 1013.9 |
| 20260504011556 | 13 | 0 | 0.0 | 1.6 | 0.00 | 0.00 | 0.00 | 35 | 1014.1 |
| 20260504011051 | 13 | 0 | 0.0 | 0.0 | 0.00 | 0.00 | 0.00 | 33 | 1014.0 |
| 20260504010553 | 14 | 0 | 0.0 | 1.6 | 0.00 | 0.00 | 0.00 | 32 | 1014.0 |
| 20260504010054 | 14 | 0 | 0.0 | 1.6 | 0.00 | 0.00 | 0.00 | 32 | 1014.1 |
| 20260504005553 | 15 | 0 | 0.0 | 3.2 | 0.00 | 0.00 | 0.00 | 32 | 1014.0 |
| 20260504005053 | 15 | 332 | 0.0 | 4.8 | 0.00 | 0.00 | 0.00 | 29 | 1014.2 |
| 20260504004557 | 15 | 109 | 0.0 | 4.8 | 0.00 | 0.00 | 0.00 | 27 | 1014.0 |
| 20260504004054 | 15 | 0 | 0.0 | 4.8 | 0.00 | 0.00 | 0.00 | 28 | 1014.1 |
| 20260504003552 | 16 | 0 | 0.0 | 4.8 | 0.00 | 0.00 | 0.00 | 28 | 1014.1 |
| 20260504003053 | 16 | 0 | 1.6 | 4.8 | 0.00 | 0.00 | 0.00 | 24 | 1014.2 |
| 20260504002553 | 16 | 90 | 0.0 | 8.0 | 0.00 | 0.00 | 0.00 | 27 | 1014.1 |
| 20260504002053 | 16 | 0 | 1.6 | 8.0 | 0.00 | 0.00 | 0.00 | 25 | 1014.2 |
| 20260504001553 | 16 | 3 | 1.6 | 8.0 | 0.00 | 0.00 | 0.00 | 24 | 1014.1 |
| 20260504001053 | 16 | 0 | 1.6 | 8.0 | 0.00 | 0.00 | 0.00 | 25 | 1014.2 |
| 20260504000553 | 16 | 340 | 3.2 | 8.0 | 0.00 | 0.00 | 0.00 | 25 | 1014.3 |
| 20260504000136 | 16 | 8 | 1.6 | 4.8 | 0.00 | 0.00 | 0.00 | 24 | 1014.3 |
| 20260503235553 | 16 | 282 | 1.6 | 6.4 | 0.00 | 0.00 | 0.00 | 21 | 1014.3 |
| 20260503235053 | 16 | 340 | 1.6 | 9.7 | 0.00 | 0.00 | 0.00 | 23 | 1014.3 |
| 20260503234554 | 17 | 20 | 3.2 | 9.7 | 0.00 | 0.00 | 0.00 | 23 | 1014.5 |
| 20260503234054 | 17 | 340 | 3.2 | 9.7 | 0.00 | 0.00 | 0.00 | 23 | 1014.3 |
| 20260503233553 | 17 | 309 | 0.0 | 11.3 | 0.00 | 0.00 | 0.00 | 24 | 1014.4 |
| 20260503233054 | 17 | 310 | 3.2 | 11.3 | 0.00 | 0.00 | 0.00 | 22 | 1014.5 |
| 20260503232556 | 17 | 236 | 1.6 | 12.9 | 0.00 | 0.00 | 0.00 | 23 | 1014.3 |
| 20260503232053 | 17 | 357 | 3.2 | 14.5 | 0.00 | 0.00 | 0.00 | 22 | 1014.5 |
| 20260503231558 | 17 | 0 | 3.2 | 14.5 | 0.00 | 0.00 | 0.00 | 22 | 1014.5 |
| 20260503231054 | 17 | 190 | 1.6 | 11.3 | 0.00 | 0.00 | 0.00 | 21 | 1014.4 |
| 20260503230553 | 17 | 9 | 1.6 | 11.3 | 0.00 | 0.00 | 0.00 | 21 | 1014.5 |
| 20260503230055 | 17 | 95 | 1.6 | 11.3 | 0.00 | 0.00 | 0.00 | 21 | 1014.6 |
| 20260503225552 | 18 | 256 | 3.2 | 11.3 | 0.00 | 0.00 | 0.00 | 23 | 1014.7 |
| 20260503225053 | 18 | 0 | 1.6 | 24.1 | 0.00 | 0.00 | 0.00 | 20 | 1014.7 |
| 20260503224553 | 17 | 244 | 4.8 | 24.1 | 0.00 | 0.00 | 0.00 | 24 | 1014.7 |
| 20260503224053 | 17 | 262 | 3.2 | 12.9 | 0.00 | 0.00 | 0.00 | 21 | 1014.7 |
| 20260503223553 | 18 | 197 | 1.6 | 8.0 | 0.00 | 0.00 | 0.00 | 23 | 1014.7 |
| 20260503223054 | 18 | 209 | 1.6 | 8.0 | 0.00 | 0.00 | 0.00 | 22 | 1014.8 |
| 20260503222552 | 18 | 288 | 1.6 | 6.4 | 0.00 | 0.00 | 0.00 | 23 | 1014.8 |
| 20260503222053 | 18 | 209 | 3.2 | 8.0 | 0.00 | 0.00 | 0.00 | 24 | 1014.9 |
| 20260503221554 | 18 | 305 | 1.6 | 8.0 | 0.00 | 0.00 | 0.00 | 23 | 1015.0 |
| 20260503221058 | 18 | 291 | 3.2 | 8.0 | 0.00 | 0.00 | 0.00 | 24 | 1015.0 |
| 20260503220554 | 17 | 168 | 1.6 | 11.3 | 0.00 | 0.00 | 0.00 | 23 | 1015.0 |
| 20260503220056 | 18 | 308 | 3.2 | 11.3 | 0.00 | 0.00 | 0.00 | 23 | 1015.1 |
| 20260503215554 | 18 | 10 | 3.2 | 11.3 | 0.00 | 0.00 | 0.00 | 24 | 1015.2 |
| 20260503215053 | 19 | 291 | 3.2 | 11.3 | 0.00 | 0.00 | 0.00 | 24 | 1015.2 |
| 20260503214552 | 19 | 317 | 1.6 | 9.7 | 0.00 | 0.00 | 0.00 | 21 | 1015.2 |
| 20260503214056 | 19 | 10 | 0.0 | 9.7 | 0.00 | 0.00 | 0.00 | 22 | 1015.4 |
| 20260503213554 | 18 | 292 | 3.2 | 9.7 | 0.00 | 0.00 | 0.00 | 22 | 1015.4 |
| 20260503213054 | 18 | 54 | 1.6 | 11.3 | 0.00 | 0.00 | 0.00 | 22 | 1015.5 |
| 20260503212550 | 19 | 236 | 3.2 | 11.3 | 0.00 | 0.00 | 0.00 | 19 | 1015.5 |
| 20260503212054 | 20 | 221 | 1.6 | 8.0 | 0.00 | 0.00 | 0.00 | 19 | 1015.6 |
| 20260503211601 | 20 | 340 | 4.8 | 9.7 | 0.00 | 0.00 | 0.00 | 22 | 1015.6 |
| 20260503211053 | 20 | 307 | 1.6 | 9.7 | 0.00 | 0.00 | 0.00 | 21 | 1015.6 |
| 20260503210554 | 20 | 158 | 3.2 | 9.7 | 0.00 | 0.00 | 0.00 | 20 | 1015.8 |
| 20260503210053 | 20 | 47 | 1.6 | 6.4 | 0.00 | 0.00 | 0.00 | 23 | 1015.7 |
| 20260503205554 | 19 | 298 | 1.6 | 6.4 | 0.00 | 0.00 | 0.00 | 24 | 1015.9 |
| 20260503205054 | 18 | 286 | 1.6 | 8.0 | 0.00 | 0.00 | 0.00 | 23 | 1016.1 |
| 20260503204558 | 18 | 0 | 1.6 | 8.0 | 0.00 | 0.00 | 0.00 | 24 | 1016.1 |
| 20260503204053 | 18 | 209 | 1.6 | 6.4 | 0.00 | 0.00 | 0.00 | 23 | 1016.1 |
| 20260503203557 | 20 | 266 | 1.6 | 9.7 | 0.00 | 0.00 | 0.00 | 21 | 1016.2 |
| 20260503203057 | 20 | 272 | 1.6 | 9.7 | 0.00 | 0.00 | 0.00 | 20 | 1016.2 |
| 20260503202553 | 19 | 307 | 1.6 | 8.0 | 0.00 | 0.00 | 0.00 | 25 | 1016.2 |
| 20260503202056 | 18 | 324 | 1.6 | 8.0 | 0.00 | 0.00 | 0.00 | 24 | 1016.3 |
| 20260503201551 | 19 | 27 | 3.2 | 8.0 | 0.00 | 0.00 | 0.00 | 25 | 1016.3 |
| 20260503201058 | 19 | 299 | 3.2 | 14.5 | 0.00 | 0.00 | 0.00 | 23 | 1016.4 |
| 20260503200553 | 19 | 321 | 3.2 | 14.5 | 0.00 | 0.00 | 0.00 | 22 | 1016.4 |
| 20260503200055 | 19 | 301 | 3.2 | 11.3 | 0.00 | 0.00 | 0.00 | 25 | 1016.5 |
| 20260503195554 | 20 | 286 | 3.2 | 12.9 | 0.00 | 0.00 | 0.00 | 23 | 1016.5 |
| 20260503195054 | 21 | 222 | 1.6 | 12.9 | 0.00 | 0.00 | 0.00 | 22 | 1016.5 |
| 20260503194555 | 21 | 326 | 3.2 | 11.3 | 0.00 | 0.00 | 0.00 | 24 | 1016.6 |
| 20260503194054 | 21 | 0 | 1.6 | 11.3 | 0.00 | 0.00 | 0.00 | 25 | 1016.6 |
| 20260503193554 | 21 | 272 | 1.6 | 11.3 | 0.00 | 0.00 | 0.00 | 23 | 1016.7 |
| 20260503193052 | 20 | 241 | 3.2 | 11.3 | 0.00 | 0.00 | 0.00 | 24 | 1016.8 |
| 20260503192553 | 19 | 18 | 1.6 | 8.0 | 0.00 | 0.00 | 0.00 | 26 | 1016.8 |
| 20260503192053 | 19 | 170 | 1.6 | 11.3 | 0.00 | 0.00 | 0.00 | 23 | 1016.8 |
| 20260503191554 | 20 | 0 | 1.6 | 11.3 | 0.00 | 0.00 | 0.00 | 23 | 1017.1 |
| 20260503191058 | 20 | 251 | 3.2 | 11.3 | 0.00 | 0.00 | 0.00 | 24 | 1017.2 |
| 20260503190553 | 21 | 353 | 3.2 | 6.4 | 0.00 | 0.00 | 0.00 | 23 | 1017.3 |